Time,TemperatureF,DewpointF,PressureIn,WindDirection,WindDirectionDegrees,WindSpeedMPH,WindSpeedGustMPH,Humidity,HourlyPrecipIn,Conditions,Clouds,dailyrainin,SoftwareType,DateUTC
2013-04-21 00:01:00,49.1,37.5,30.24,North,0,0.0,0.0,64,0.00,,,0.00,VWS V14.00,2013-04-21 04:01:00,
2013-04-21 00:03:00,49.1,37.9,30.24,North,0,0.0,0.0,65,0.00,,,0.00,VWS V14.00,2013-04-21 04:03:00,
2013-04-21 00:04:00,49.1,37.9,30.24,North,0,0.0,0.0,65,0.00,,,0.00,VWS V14.00,2013-04-21 04:04:00,
2013-04-21 00:09:00,48.9,38.1,30.24,North,0,0.0,0.0,66,0.00,,,0.00,VWS V14.00,2013-04-21 04:09:00,
2013-04-21 00:14:00,48.7,38.3,30.24,North,0,0.0,0.0,67,0.00,,,0.00,VWS V14.00,2013-04-21 04:14:00,
2013-04-21 00:19:00,48.7,38.3,30.24,North,357,0.0,0.0,67,0.00,,,0.00,VWS V14.00,2013-04-21 04:19:00,
2013-04-21 00:24:00,48.6,38.1,30.24,North,0,0.0,0.0,67,0.00,,,0.00,VWS V14.00,2013-04-21 04:24:00,
2013-04-21 00:29:00,48.4,38.3,30.24,North,357,0.0,0.0,68,0.00,,,0.00,VWS V14.00,2013-04-21 04:29:00,
2013-04-21 00:34:00,48.2,38.2,30.24,North,0,0.0,0.0,68,0.00,,,0.00,VWS V14.00,2013-04-21 04:34:00,
2013-04-21 00:40:00,48.4,38.3,30.24,SE,140,3.1,4.0,68,0.00,,,0.00,VWS V14.00,2013-04-21 04:40:00,
2013-04-21 00:45:00,48.2,38.2,30.24,SE,140,0.0,0.0,68,0.00,,,0.00,VWS V14.00,2013-04-21 04:45:00,
2013-04-21 00:50:00,47.8,38.2,30.24,SE,140,0.0,0.0,69,0.00,,,0.00,VWS V14.00,2013-04-21 04:50:00,
2013-04-21 00:55:00,48.0,38.0,30.24,SE,140,0.0,0.0,68,0.00,,,0.00,VWS V14.00,2013-04-21 04:55:00,
2013-04-21 01:00:00,48.0,37.6,30.24,SE,140,0.0,0.0,67,0.00,,,0.00,VWS V14.00,2013-04-21 05:00:00,
2013-04-21 01:05:00,48.0,37.6,30.24,SE,140,0.0,0.0,67,0.00,,,0.00,VWS V14.00,2013-04-21 05:05:00,
2013-04-21 01:10:00,48.0,37.2,30.24,SE,140,0.0,0.0,66,0.00,,,0.00,VWS V14.00,2013-04-21 05:10:00,
2013-04-21 01:15:00,47.8,37.0,30.24,SE,140,0.0,0.0,66,0.00,,,0.00,VWS V14.00,2013-04-21 05:15:00,
2013-04-21 01:20:00,47.8,37.0,30.24,SE,140,0.0,0.0,66,0.00,,,0.00,VWS V14.00,2013-04-21 05:20:00,
2013-04-21 01:25:00,47.8,37.0,30.24,SE,140,0.0,0.0,66,0.00,,,0.00,VWS V14.00,2013-04-21 05:25:00,
2013-04-21 01:30:00,47.8,37.4,30.24,SE,140,0.0,0.0,67,0.00,,,0.00,VWS V14.00,2013-04-21 05:30:00,
2013-04-21 01:35:00,47.8,37.8,30.24,SE,140,0.0,0.0,68,0.00,,,0.00,VWS V14.00,2013-04-21 05:35:00,
2013-04-21 01:40:00,47.7,38.0,30.24,SE,140,0.0,0.0,69,0.00,,,0.00,VWS V14.00,2013-04-21 05:40:00,
2013-04-21 01:45:00,47.5,38.2,30.24,SE,140,0.0,0.0,70,0.00,,,0.00,VWS V14.00,2013-04-21 05:45:00,
2013-04-21 01:50:00,47.3,38.0,30.24,SE,140,0.0,0.0,70,0.00,,,0.00,VWS V14.00,2013-04-21 05:50:00,
2013-04-21 01:55:00,47.3,38.0,30.24,SE,140,0.0,0.0,70,0.00,,,0.00,VWS V14.00,2013-04-21 05:55:00,
2013-04-21 02:00:00,47.3,38.0,30.24,SE,140,0.0,0.0,70,0.00,,,0.00,VWS V14.00,2013-04-21 06:00:00,
2013-04-21 02:05:00,47.1,37.8,30.24,SE,140,0.0,0.0,70,0.00,,,0.00,VWS V14.00,2013-04-21 06:05:00,
2013-04-21 02:10:00,47.1,37.8,30.24,SE,140,0.0,0.0,70,0.00,,,0.00,VWS V14.00,2013-04-21 06:10:00,
2013-04-21 02:16:00,46.9,37.3,30.24,SE,140,0.0,0.0,69,0.00,,,0.00,VWS V14.00,2013-04-21 06:16:00,
2013-04-21 02:21:00,46.9,37.3,30.24,SE,140,0.0,0.0,69,0.00,,,0.00,VWS V14.00,2013-04-21 06:21:00,
2013-04-21 02:26:00,46.8,37.1,30.24,SE,140,0.0,0.0,69,0.00,,,0.00,VWS V14.00,2013-04-21 06:26:00,
2013-04-21 02:31:00,46.6,37.0,30.24,SE,140,0.0,0.0,69,0.00,,,0.00,VWS V14.00,2013-04-21 06:31:00,
2013-04-21 02:36:00,46.6,37.0,30.24,SE,140,0.0,0.0,69,0.00,,,0.00,VWS V14.00,2013-04-21 06:36:00,
2013-04-21 02:41:00,46.4,36.8,30.24,SE,140,0.0,0.0,69,0.00,,,0.00,VWS V14.00,2013-04-21 06:41:00,
2013-04-21 02:46:00,46.4,36.8,30.24,SE,140,0.0,0.0,69,0.00,,,0.00,VWS V14.00,2013-04-21 06:46:00,
2013-04-21 02:51:00,46.2,37.0,30.24,SE,140,0.0,0.0,70,0.00,,,0.00,VWS V14.00,2013-04-21 06:51:00,
2013-04-21 02:56:00,46.2,37.0,30.24,SE,140,0.0,0.0,70,0.00,,,0.00,VWS V14.00,2013-04-21 06:56:00,
2013-04-21 03:01:00,46.2,37.0,30.24,SE,140,0.0,0.0,70,0.00,,,0.00,VWS V14.00,2013-04-21 07:01:00,
2013-04-21 03:06:00,46.0,36.8,30.24,SE,140,0.0,0.0,70,0.00,,,0.00,VWS V14.00,2013-04-21 07:06:00,
2013-04-21 03:11:00,45.9,36.6,30.24,SE,140,0.0,0.0,70,0.00,,,0.00,VWS V14.00,2013-04-21 07:11:00,
2013-04-21 03:16:00,45.9,36.6,30.24,SE,140,0.0,0.0,70,0.00,,,0.00,VWS V14.00,2013-04-21 07:16:00,
2013-04-21 03:21:00,45.7,36.5,30.27,SE,140,0.0,0.0,70,0.00,,,0.00,VWS V14.00,2013-04-21 07:21:00,
2013-04-21 03:26:00,45.5,36.3,30.27,SE,140,0.0,0.0,70,0.00,,,0.00,VWS V14.00,2013-04-21 07:26:00,
2013-04-21 03:31:00,45.5,36.3,30.27,SE,140,0.0,0.0,70,0.00,,,0.00,VWS V14.00,2013-04-21 07:31:00,
2013-04-21 03:36:00,45.3,36.1,30.24,SE,140,0.0,0.0,70,0.00,,,0.00,VWS V14.00,2013-04-21 07:36:00,
2013-04-21 03:42:00,45.1,36.3,30.24,SE,140,0.0,0.0,71,0.00,,,0.00,VWS V14.00,2013-04-21 07:42:00,
2013-04-21 03:47:00,45.0,36.5,30.24,SE,140,0.0,0.0,72,0.00,,,0.00,VWS V14.00,2013-04-21 07:47:00,
2013-04-21 03:52:00,45.0,36.5,30.24,SE,140,0.0,0.0,72,0.00,,,0.00,VWS V14.00,2013-04-21 07:52:00,
2013-04-21 03:57:00,45.1,36.7,30.24,SE,140,0.0,0.0,72,0.00,,,0.00,VWS V14.00,2013-04-21 07:57:00,
2013-04-21 04:02:00,45.0,36.5,30.24,SE,140,0.0,0.0,72,0.00,,,0.00,VWS V14.00,2013-04-21 08:02:00,
2013-04-21 04:07:00,45.0,36.8,30.27,SE,140,0.0,0.0,73,0.00,,,0.00,VWS V14.00,2013-04-21 08:07:00,
2013-04-21 04:12:00,44.8,36.7,30.27,SE,140,0.0,0.0,73,0.00,,,0.00,VWS V14.00,2013-04-21 08:12:00,
2013-04-21 04:17:00,44.8,36.7,30.27,SE,140,0.0,0.0,73,0.00,,,0.00,VWS V14.00,2013-04-21 08:17:00,
2013-04-21 04:22:00,44.8,36.7,30.27,SE,140,0.0,0.0,73,0.00,,,0.00,VWS V14.00,2013-04-21 08:22:00,
2013-04-21 04:27:00,44.8,37.0,30.27,SE,140,0.0,0.0,74,0.00,,,0.00,VWS V14.00,2013-04-21 08:27:00,
2013-04-21 04:32:00,44.6,37.2,30.27,SE,140,0.0,0.0,75,0.00,,,0.00,VWS V14.00,2013-04-21 08:32:00,
2013-04-21 04:37:00,44.4,37.3,30.27,SE,140,0.0,0.0,76,0.00,,,0.00,VWS V14.00,2013-04-21 08:37:00,
2013-04-21 04:42:00,44.2,37.2,30.27,SE,140,0.0,0.0,76,0.00,,,0.00,VWS V14.00,2013-04-21 08:42:00,
2013-04-21 04:47:00,44.2,37.2,30.27,SE,140,0.0,0.0,76,0.00,,,0.00,VWS V14.00,2013-04-21 08:47:00,
2013-04-21 04:52:00,44.2,37.2,30.27,SE,140,0.0,0.0,76,0.00,,,0.00,VWS V14.00,2013-04-21 08:52:00,
2013-04-21 04:57:00,44.2,37.2,30.27,SE,140,0.0,0.0,76,0.00,,,0.00,VWS V14.00,2013-04-21 08:57:00,
2013-04-21 05:02:00,44.1,37.0,30.27,SE,140,0.0,0.0,76,0.00,,,0.00,VWS V14.00,2013-04-21 09:02:00,
2013-04-21 05:07:00,44.1,37.0,30.27,SE,140,0.0,0.0,76,0.00,,,0.00,VWS V14.00,2013-04-21 09:07:00,
2013-04-21 05:12:00,44.1,37.0,30.27,SE,140,0.0,0.0,76,0.00,,,0.00,VWS V14.00,2013-04-21 09:12:00,
2013-04-21 05:18:00,44.1,37.0,30.27,SE,140,0.0,0.0,76,0.00,,,0.00,VWS V14.00,2013-04-21 09:18:00,
2013-04-21 05:23:00,43.9,36.8,30.27,SE,140,0.0,0.0,76,0.00,,,0.00,VWS V14.00,2013-04-21 09:23:00,
2013-04-21 05:28:00,43.9,36.8,30.27,SE,140,0.0,0.0,76,0.00,,,0.00,VWS V14.00,2013-04-21 09:28:00,
2013-04-21 05:33:00,43.9,36.8,30.27,SE,140,0.0,0.0,76,0.00,,,0.00,VWS V14.00,2013-04-21 09:33:00,
2013-04-21 05:38:00,43.7,36.6,30.27,SE,140,0.0,0.0,76,0.00,,,0.00,VWS V14.00,2013-04-21 09:38:00,
2013-04-21 05:43:00,43.7,36.6,30.27,SE,140,0.0,0.0,76,0.00,,,0.00,VWS V14.00,2013-04-21 09:43:00,
2013-04-21 05:48:00,43.9,37.2,30.27,SE,140,0.0,0.0,77,0.00,,,0.00,VWS V14.00,2013-04-21 09:48:00,
2013-04-21 05:53:00,43.7,37.0,30.27,SE,140,0.0,0.0,77,0.00,,,0.00,VWS V14.00,2013-04-21 09:53:00,
2013-04-21 05:58:00,43.5,37.1,30.27,SE,140,0.0,0.0,78,0.00,,,0.00,VWS V14.00,2013-04-21 09:58:00,
2013-04-21 06:03:00,43.5,37.1,30.27,SE,140,0.0,0.0,78,0.00,,,0.00,VWS V14.00,2013-04-21 10:03:00,
2013-04-21 06:08:00,43.3,37.0,30.30,SE,139,0.0,0.0,78,0.00,,,0.00,VWS V14.00,2013-04-21 10:08:00,
2013-04-21 06:13:00,43.2,37.1,30.30,SE,140,0.0,0.0,79,0.00,,,0.00,VWS V14.00,2013-04-21 10:13:00,
2013-04-21 06:18:00,43.0,36.9,30.30,SE,140,0.0,0.0,79,0.00,,,0.00,VWS V14.00,2013-04-21 10:18:00,
2013-04-21 06:23:00,43.0,36.9,30.30,SE,140,0.0,0.0,79,0.00,,,0.00,VWS V14.00,2013-04-21 10:23:00,
2013-04-21 06:28:00,42.8,37.1,30.30,SE,140,0.0,0.0,80,0.00,,,0.00,VWS V14.00,2013-04-21 10:28:00,
2013-04-21 06:33:00,42.8,37.1,30.30,SE,140,0.0,0.0,80,0.00,,,0.00,VWS V14.00,2013-04-21 10:33:00,
2013-04-21 06:38:00,42.8,37.1,30.30,SE,140,0.0,0.0,80,0.00,,,0.00,VWS V14.00,2013-04-21 10:38:00,
2013-04-21 06:43:00,42.8,37.1,30.30,SE,140,0.0,0.0,80,0.00,,,0.00,VWS V14.00,2013-04-21 10:43:00,
2013-04-21 06:48:00,42.8,37.1,30.30,SE,140,0.0,0.0,80,0.00,,,0.00,VWS V14.00,2013-04-21 10:48:00,
2013-04-21 06:54:00,42.6,37.2,30.30,SE,140,0.0,0.0,81,0.00,,,0.00,VWS V14.00,2013-04-21 10:54:00,
2013-04-21 06:59:00,42.8,37.1,30.30,SE,140,0.0,0.0,80,0.00,,,0.00,VWS V14.00,2013-04-21 10:59:00,
2013-04-21 07:04:00,42.8,37.1,30.30,SE,140,0.0,0.0,80,0.00,,,0.00,VWS V14.00,2013-04-21 11:04:00,
2013-04-21 07:09:00,42.8,37.4,30.33,SE,140,0.0,0.0,81,0.00,,,0.00,VWS V14.00,2013-04-21 11:09:00,
2013-04-21 07:14:00,43.0,37.6,30.33,SE,140,0.0,0.0,81,0.00,,,0.00,VWS V14.00,2013-04-21 11:14:00,
2013-04-21 07:19:00,43.0,37.6,30.33,SE,140,0.0,0.0,81,0.00,,,0.00,VWS V14.00,2013-04-21 11:19:00,
2013-04-21 07:24:00,43.0,37.6,30.33,SE,140,0.0,0.0,81,0.00,,,0.00,VWS V14.00,2013-04-21 11:24:00,
2013-04-21 07:29:00,43.2,37.7,30.33,SE,140,0.0,0.0,81,0.00,,,0.00,VWS V14.00,2013-04-21 11:29:00,
2013-04-21 07:34:00,43.5,38.1,30.33,SE,140,0.0,0.0,81,0.00,,,0.00,VWS V14.00,2013-04-21 11:34:00,
2013-04-21 07:39:00,43.7,38.6,30.33,NNE,27,0.0,0.0,82,0.00,,,0.00,VWS V14.00,2013-04-21 11:39:00,
2013-04-21 07:44:00,44.1,38.9,30.33,NNE,27,0.0,0.0,82,0.00,,,0.00,VWS V14.00,2013-04-21 11:44:00,
2013-04-21 07:49:00,44.4,39.3,30.33,NNE,26,0.0,0.0,82,0.00,,,0.00,VWS V14.00,2013-04-21 11:49:00,
2013-04-21 07:54:00,44.8,39.9,30.33,NNE,18,2.2,2.2,83,0.00,,,0.00,VWS V14.00,2013-04-21 11:54:00,
2013-04-21 07:59:00,45.3,40.5,30.33,NNE,18,0.0,0.0,83,0.00,,,0.00,VWS V14.00,2013-04-21 11:59:00,
2013-04-21 08:04:00,45.5,41.0,30.36,North,357,0.0,0.0,84,0.00,,,0.00,VWS V14.00,2013-04-21 12:04:00,
2013-04-21 08:09:00,45.9,41.3,30.36,North,357,3.6,4.9,84,0.00,,,0.00,VWS V14.00,2013-04-21 12:09:00,
2013-04-21 08:14:00,46.0,41.2,30.36,North,0,0.0,2.7,83,0.00,,,0.00,VWS V14.00,2013-04-21 12:14:00,
2013-04-21 08:19:00,46.6,41.1,30.36,North,0,0.0,0.0,81,0.00,,,0.00,VWS V14.00,2013-04-21 12:19:00,
2013-04-21 08:25:00,46.9,41.1,30.36,North,0,0.0,0.0,80,0.00,,,0.00,VWS V14.00,2013-04-21 12:25:00,
2013-04-21 08:30:00,47.3,41.1,30.36,ENE,72,0.0,0.0,79,0.00,,,0.00,VWS V14.00,2013-04-21 12:30:00,
2013-04-21 08:35:00,47.7,40.8,30.36,North,353,0.0,0.0,77,0.00,,,0.00,VWS V14.00,2013-04-21 12:35:00,
2013-04-21 08:40:00,48.0,40.5,30.36,North,357,0.0,0.0,75,0.00,,,0.00,VWS V14.00,2013-04-21 12:40:00,
2013-04-21 08:45:00,48.6,39.6,30.36,North,349,2.7,3.1,71,0.00,,,0.00,VWS V14.00,2013-04-21 12:45:00,
2013-04-21 08:50:00,48.9,39.2,30.36,North,357,0.0,0.0,69,0.00,,,0.00,VWS V14.00,2013-04-21 12:50:00,
2013-04-21 08:55:00,49.3,39.9,30.36,North,2,0.0,0.0,70,0.00,,,0.00,VWS V14.00,2013-04-21 12:55:00,
2013-04-21 09:00:00,49.8,39.7,30.36,NNW,343,3.1,3.6,68,0.00,,,0.00,VWS V14.00,2013-04-21 13:00:00,
2013-04-21 09:05:00,50.4,39.5,30.36,North,357,0.0,3.1,66,0.00,,,0.00,VWS V14.00,2013-04-21 13:05:00,
2013-04-21 09:10:00,50.9,38.8,30.36,North,0,0.0,3.6,63,0.00,,,0.00,VWS V14.00,2013-04-21 13:10:00,
2013-04-21 09:15:00,51.4,38.5,30.36,NNE,24,2.7,2.7,61,0.00,,,0.00,VWS V14.00,2013-04-21 13:15:00,
2013-04-21 09:20:00,52.0,36.8,30.36,NNW,348,3.1,3.1,56,0.00,,,0.00,VWS V14.00,2013-04-21 13:20:00,
2013-04-21 09:25:00,52.5,35.9,30.36,North,11,6.3,6.3,53,0.00,,,0.00,VWS V14.00,2013-04-21 13:25:00,
2013-04-21 09:30:00,53.1,36.4,30.36,North,2,3.1,3.1,53,0.00,,,0.00,VWS V14.00,2013-04-21 13:30:00,
2013-04-21 09:35:00,54.0,36.3,30.36,ENE,70,0.0,2.2,51,0.00,,,0.00,VWS V14.00,2013-04-21 13:35:00,
2013-04-21 09:40:00,54.5,34.7,30.36,North,353,3.6,6.3,47,0.00,,,0.00,VWS V14.00,2013-04-21 13:40:00,
2013-04-21 09:45:00,55.2,35.4,30.36,North,357,3.1,4.0,47,0.00,,,0.00,VWS V14.00,2013-04-21 13:45:00,
2013-04-21 09:50:00,55.8,34.8,30.36,ENE,63,0.0,2.7,45,0.00,,,0.00,VWS V14.00,2013-04-21 13:50:00,
2013-04-21 09:56:00,56.3,34.7,30.36,ENE,72,3.6,3.6,44,0.00,,,0.00,VWS V14.00,2013-04-21 13:56:00,
2013-04-21 10:01:00,56.8,33.4,30.36,North,357,4.0,4.0,41,0.00,,,0.00,VWS V14.00,2013-04-21 14:01:00,
2013-04-21 10:06:00,57.4,32.0,30.36,ESE,111,0.0,0.0,38,0.00,,,0.00,VWS V14.00,2013-04-21 14:06:00,
2013-04-21 10:11:00,57.9,31.8,30.36,ESE,105,0.0,4.0,37,0.00,,,0.00,VWS V14.00,2013-04-21 14:11:00,
2013-04-21 10:16:00,58.5,32.3,30.36,ESE,112,2.2,2.2,37,0.00,,,0.00,VWS V14.00,2013-04-21 14:16:00,
2013-04-21 10:21:00,59.0,32.1,30.36,NE,47,2.7,3.1,36,0.00,,,0.00,VWS V14.00,2013-04-21 14:21:00,
2013-04-21 10:26:00,59.5,32.6,30.36,East,87,2.7,3.1,36,0.00,,,0.00,VWS V14.00,2013-04-21 14:26:00,
2013-04-21 10:31:00,59.9,32.9,30.36,North,10,0.0,4.9,36,0.00,,,0.00,VWS V14.00,2013-04-21 14:31:00,
2013-04-21 10:36:00,60.4,32.7,30.36,ESE,102,4.0,4.0,35,0.00,,,0.00,VWS V14.00,2013-04-21 14:36:00,
2013-04-21 10:41:00,61.2,31.1,30.36,ESE,123,3.6,3.6,32,0.00,,,0.00,VWS V14.00,2013-04-21 14:41:00,
2013-04-21 10:46:00,61.9,29.3,30.36,North,5,2.7,4.0,29,0.00,,,0.00,VWS V14.00,2013-04-21 14:46:00,
2013-04-21 10:51:00,62.2,27.0,30.36,ENE,73,2.7,2.7,26,0.00,,,0.00,VWS V14.00,2013-04-21 14:51:00,
2013-04-21 10:56:00,63.0,27.6,30.36,North,3,3.1,4.0,26,0.00,,,0.00,VWS V14.00,2013-04-21 14:56:00,
2013-04-21 11:01:00,63.1,25.8,30.36,ESE,115,5.4,5.4,24,0.00,,,0.00,VWS V14.00,2013-04-21 15:01:00,
2013-04-21 11:07:00,63.9,26.4,30.36,ESE,121,3.1,5.4,24,0.00,,,0.00,VWS V14.00,2013-04-21 15:07:00,
2013-04-21 11:12:00,64.0,26.5,30.36,ESE,112,3.1,3.1,24,0.00,,,0.00,VWS V14.00,2013-04-21 15:12:00,
2013-04-21 11:17:00,64.4,25.8,30.36,West,278,2.2,6.3,23,0.00,,,0.00,VWS V14.00,2013-04-21 15:17:00,
2013-04-21 11:22:00,64.8,26.1,30.33,ESE,123,3.6,4.0,23,0.00,,,0.00,VWS V14.00,2013-04-21 15:22:00,
2013-04-21 11:27:00,65.1,26.4,30.33,East,101,3.1,6.3,23,0.00,,,0.00,VWS V14.00,2013-04-21 15:27:00,
2013-04-21 11:32:00,65.5,26.7,30.33,SE,133,3.1,4.9,23,0.00,,,0.00,VWS V14.00,2013-04-21 15:32:00,
2013-04-21 11:37:00,65.8,27.0,30.36,East,89,4.0,7.6,23,0.00,,,0.00,VWS V14.00,2013-04-21 15:37:00,
2013-04-21 11:42:00,66.2,26.3,30.36,East,85,2.7,3.6,22,0.00,,,0.00,VWS V14.00,2013-04-21 15:42:00,
2013-04-21 11:47:00,66.4,26.4,30.36,East,80,5.4,9.6,22,0.00,,,0.00,VWS V14.00,2013-04-21 15:47:00,
2013-04-21 11:52:00,66.6,24.3,30.33,ENE,73,5.4,8.7,20,0.00,,,0.00,VWS V14.00,2013-04-21 15:52:00,
2013-04-21 11:57:00,66.6,26.6,30.33,SE,133,0.0,2.7,22,0.00,,,0.00,VWS V14.00,2013-04-21 15:57:00,
2013-04-21 12:02:00,67.1,24.7,30.33,ENE,78,3.6,5.8,20,0.00,,,0.00,VWS V14.00,2013-04-21 16:02:00,
2013-04-21 12:07:00,67.5,25.0,30.33,East,101,5.4,5.4,20,0.00,,,0.00,VWS V14.00,2013-04-21 16:07:00,
2013-04-21 12:12:00,67.6,25.2,30.33,ENE,77,3.6,4.0,20,0.00,,,0.00,VWS V14.00,2013-04-21 16:12:00,
2013-04-21 12:17:00,67.6,21.3,30.33,SE,127,2.7,2.7,17,0.00,,,0.00,VWS V14.00,2013-04-21 16:17:00,
2013-04-21 12:22:00,68.0,21.6,30.33,ENE,59,4.0,5.8,17,0.00,,,0.00,VWS V14.00,2013-04-21 16:22:00,
2013-04-21 12:27:00,68.2,21.7,30.33,ENE,72,2.2,2.7,17,0.00,,,0.00,VWS V14.00,2013-04-21 16:27:00,
2013-04-21 12:33:00,68.9,26.2,30.33,ENE,75,2.2,5.8,20,0.00,,,0.00,VWS V14.00,2013-04-21 16:33:00,
2013-04-21 12:38:00,69.3,26.5,30.33,ESE,118,2.7,2.7,20,0.00,,,0.00,VWS V14.00,2013-04-21 16:38:00,
2013-04-21 12:43:00,69.6,26.8,30.33,ENE,71,5.8,8.7,20,0.00,,,0.00,VWS V14.00,2013-04-21 16:43:00,
2013-04-21 12:48:00,68.5,22.0,30.33,North,353,4.0,4.9,17,0.00,,,0.00,VWS V14.00,2013-04-21 16:48:00,
2013-04-21 12:53:00,69.1,26.4,30.33,ENE,77,5.4,5.4,20,0.00,,,0.00,VWS V14.00,2013-04-21 16:53:00,
2013-04-21 12:58:00,69.6,22.9,30.33,ENE,70,4.0,4.0,17,0.00,,,0.00,VWS V14.00,2013-04-21 16:58:00,
2013-04-21 13:03:00,69.8,23.1,30.33,East,97,3.1,6.3,17,0.00,,,0.00,VWS V14.00,2013-04-21 17:03:00,
2013-04-21 13:08:00,70.0,23.2,30.33,ESE,104,5.8,5.8,17,0.00,,,0.00,VWS V14.00,2013-04-21 17:08:00,
2013-04-21 13:13:00,70.5,23.6,30.33,North,2,3.6,3.6,17,0.00,,,0.00,VWS V14.00,2013-04-21 17:13:00,
2013-04-21 13:18:00,70.7,23.8,30.33,ENE,77,4.0,4.0,17,0.00,,,0.00,VWS V14.00,2013-04-21 17:18:00,
2013-04-21 13:23:00,71.2,26.9,30.33,ENE,78,3.6,3.6,19,0.00,,,0.00,VWS V14.00,2013-04-21 17:23:00,
2013-04-21 13:28:00,72.0,27.5,30.33,ESE,103,4.0,5.8,19,0.00,,,0.00,VWS V14.00,2013-04-21 17:28:00,
2013-04-21 13:33:00,72.3,23.6,30.33,East,94,0.0,4.9,16,0.00,,,0.00,VWS V14.00,2013-04-21 17:33:00,
2013-04-21 13:38:00,72.7,23.9,30.33,NNW,344,2.7,4.9,16,0.00,,,0.00,VWS V14.00,2013-04-21 17:38:00,
2013-04-21 13:43:00,72.3,23.6,30.33,ENE,72,5.4,5.4,16,0.00,,,0.00,VWS V14.00,2013-04-21 17:43:00,
2013-04-21 13:48:00,72.9,24.1,30.33,SE,137,2.7,5.8,16,0.00,,,0.00,VWS V14.00,2013-04-21 17:48:00,
2013-04-21 13:53:00,72.7,23.9,30.33,NE,41,0.0,0.0,16,0.00,,,0.00,VWS V14.00,2013-04-21 17:53:00,
2013-04-21 13:58:00,72.7,23.9,30.33,SE,126,4.0,4.0,16,0.00,,,0.00,VWS V14.00,2013-04-21 17:58:00,
2013-04-21 14:04:00,72.9,24.1,30.33,SE,132,3.6,3.6,16,0.00,,,0.00,VWS V14.00,2013-04-21 18:04:00,
2013-04-21 14:09:00,72.9,24.1,30.30,SSW,210,2.2,3.6,16,0.00,,,0.00,VWS V14.00,2013-04-21 18:09:00,
2013-04-21 14:14:00,73.2,24.4,30.30,East,83,2.7,2.7,16,0.00,,,0.00,VWS V14.00,2013-04-21 18:14:00,
2013-04-21 14:19:00,74.1,25.1,30.30,ESE,102,4.0,4.9,16,0.00,,,0.00,VWS V14.00,2013-04-21 18:19:00,
2013-04-21 14:24:00,74.3,25.2,30.30,SSE,152,0.0,0.0,16,0.00,,,0.00,VWS V14.00,2013-04-21 18:24:00,
2013-04-21 14:29:00,74.1,25.1,30.30,East,97,4.0,4.0,16,0.00,,,0.00,VWS V14.00,2013-04-21 18:29:00,
2013-04-21 14:34:00,74.5,25.4,30.30,ENE,77,0.0,5.8,16,0.00,,,0.00,VWS V14.00,2013-04-21 18:34:00,
2013-04-21 14:39:00,74.7,25.5,30.30,SE,141,0.0,3.1,16,0.00,,,0.00,VWS V14.00,2013-04-21 18:39:00,
2013-04-21 14:44:00,75.0,25.8,30.30,NNW,341,4.9,4.9,16,0.00,,,0.00,VWS V14.00,2013-04-21 18:44:00,
2013-04-21 14:49:00,75.0,25.8,30.30,North,1,2.7,2.7,16,0.00,,,0.00,VWS V14.00,2013-04-21 18:49:00,
2013-04-21 14:54:00,75.7,24.9,30.30,SE,125,3.1,3.6,15,0.00,,,0.00,VWS V14.00,2013-04-21 18:54:00,
2013-04-21 14:59:00,76.3,25.3,30.30,ESE,122,4.9,5.8,15,0.00,,,0.00,VWS V14.00,2013-04-21 18:59:00,
2013-04-21 15:04:00,76.3,25.3,30.30,ESE,114,4.0,5.8,15,0.00,,,0.00,VWS V14.00,2013-04-21 19:04:00,
2013-04-21 15:09:00,75.9,25.0,30.30,ESE,116,2.7,3.1,15,0.00,,,0.00,VWS V14.00,2013-04-21 19:09:00,
2013-04-21 15:15:00,75.6,24.7,30.30,East,92,3.6,3.6,15,0.00,,,0.00,VWS V14.00,2013-04-21 19:15:00,
2013-04-21 15:20:00,75.6,24.7,30.30,NNE,15,3.1,3.1,15,0.00,,,0.00,VWS V14.00,2013-04-21 19:20:00,
2013-04-21 15:25:00,75.7,24.9,30.30,SE,137,3.6,3.6,15,0.00,,,0.00,VWS V14.00,2013-04-21 19:25:00,
2013-04-21 15:30:00,77.0,25.9,30.30,SSE,147,4.9,4.9,15,0.00,,,0.00,VWS V14.00,2013-04-21 19:30:00,
2013-04-21 15:35:00,76.8,25.7,30.27,North,10,3.1,4.9,15,0.00,,,0.00,VWS V14.00,2013-04-21 19:35:00,
2013-04-21 15:40:00,76.6,25.6,30.27,ENE,70,5.8,5.8,15,0.00,,,0.00,VWS V14.00,2013-04-21 19:40:00,
2013-04-21 15:45:00,76.8,25.7,30.27,North,2,3.1,3.1,15,0.00,,,0.00,VWS V14.00,2013-04-21 19:45:00,
2013-04-21 15:50:00,77.4,26.1,30.27,ESE,117,2.7,2.7,15,0.00,,,0.00,VWS V14.00,2013-04-21 19:50:00,
2013-04-21 15:55:00,78.1,26.7,30.27,North,0,2.7,4.5,15,0.00,,,0.00,VWS V14.00,2013-04-21 19:55:00,
2013-04-21 16:00:00,77.9,26.6,30.27,East,101,0.0,3.1,15,0.00,,,0.00,VWS V14.00,2013-04-21 20:00:00,
2013-04-21 16:05:00,78.3,26.9,30.27,East,82,2.2,2.2,15,0.00,,,0.00,VWS V14.00,2013-04-21 20:05:00,
2013-04-21 16:10:00,78.3,26.9,30.27,East,96,2.7,3.6,15,0.00,,,0.00,VWS V14.00,2013-04-21 20:10:00,
2013-04-21 16:15:00,78.8,27.3,30.27,ESE,110,4.0,4.0,15,0.00,,,0.00,VWS V14.00,2013-04-21 20:15:00,
2013-04-21 16:20:00,78.1,26.7,30.27,NNE,31,2.7,5.8,15,0.00,,,0.00,VWS V14.00,2013-04-21 20:20:00,
2013-04-21 16:25:00,78.6,27.1,30.27,East,95,0.0,0.0,15,0.00,,,0.00,VWS V14.00,2013-04-21 20:25:00,
2013-04-21 16:31:00,79.5,22.5,30.27,East,84,0.0,3.1,12,0.00,,,0.00,VWS V14.00,2013-04-21 20:31:00,
2013-04-21 16:36:00,79.2,27.6,30.27,NNW,340,6.3,6.3,15,0.00,,,0.00,VWS V14.00,2013-04-21 20:36:00,
2013-04-21 16:41:00,78.3,26.9,30.27,ESE,104,4.0,4.0,15,0.00,,,0.00,VWS V14.00,2013-04-21 20:41:00,
2013-04-21 16:46:00,77.9,26.6,30.27,East,87,0.0,0.0,15,0.00,,,0.00,VWS V14.00,2013-04-21 20:46:00,
2013-04-21 16:51:00,79.0,27.4,30.27,ESE,120,3.1,3.6,15,0.00,,,0.00,VWS V14.00,2013-04-21 20:51:00,
2013-04-21 16:56:00,78.4,27.0,30.27,NE,37,4.0,4.0,15,0.00,,,0.00,VWS V14.00,2013-04-21 20:56:00,
2013-04-21 17:01:00,74.7,20.6,30.27,NNE,15,6.3,7.6,13,0.00,,,0.00,VWS V14.00,2013-04-21 21:01:00,
2013-04-21 17:06:00,74.7,25.5,30.27,SE,135,2.7,3.1,16,0.00,,,0.00,VWS V14.00,2013-04-21 21:06:00,
2013-04-21 17:11:00,75.9,21.6,30.27,NNE,18,2.7,6.3,13,0.00,,,0.00,VWS V14.00,2013-04-21 21:11:00,
2013-04-21 17:16:00,77.2,26.0,30.27,SE,131,2.7,4.9,15,0.00,,,0.00,VWS V14.00,2013-04-21 21:16:00,
2013-04-21 17:21:00,78.6,27.1,30.27,East,89,2.7,6.3,15,0.00,,,0.00,VWS V14.00,2013-04-21 21:21:00,
2013-04-21 17:26:00,78.6,27.1,30.27,ESE,113,3.6,3.6,15,0.00,,,0.00,VWS V14.00,2013-04-21 21:26:00,
2013-04-21 17:31:00,77.4,22.7,30.27,East,97,4.5,4.5,13,0.00,,,0.00,VWS V14.00,2013-04-21 21:31:00,
2013-04-21 17:36:00,77.9,23.1,30.27,NW,315,2.2,5.4,13,0.00,,,0.00,VWS V14.00,2013-04-21 21:36:00,
2013-04-21 17:41:00,77.7,26.4,30.27,ENE,72,2.7,3.1,15,0.00,,,0.00,VWS V14.00,2013-04-21 21:41:00,
2013-04-21 17:46:00,78.6,23.7,30.27,NW,304,2.2,9.6,13,0.00,,,0.00,VWS V14.00,2013-04-21 21:46:00,
2013-04-21 17:51:00,78.3,26.9,30.27,North,357,3.6,3.6,15,0.00,,,0.00,VWS V14.00,2013-04-21 21:51:00,
2013-04-21 17:57:00,77.4,22.7,30.27,East,80,2.7,4.9,13,0.00,,,0.00,VWS V14.00,2013-04-21 21:57:00,
2013-04-21 18:02:00,78.1,26.7,30.27,ESE,105,2.7,2.7,15,0.00,,,0.00,VWS V14.00,2013-04-21 22:02:00,
2013-04-21 18:07:00,79.0,27.4,30.27,SE,130,2.7,5.8,15,0.00,,,0.00,VWS V14.00,2013-04-21 22:07:00,
2013-04-21 18:12:00,79.3,27.7,30.27,East,80,3.1,3.1,15,0.00,,,0.00,VWS V14.00,2013-04-21 22:12:00,
2013-04-21 18:17:00,79.0,22.1,30.27,ESE,114,4.9,4.9,12,0.00,,,0.00,VWS V14.00,2013-04-21 22:17:00,
2013-04-21 18:22:00,78.6,23.7,30.27,ENE,65,2.7,3.6,13,0.00,,,0.00,VWS V14.00,2013-04-21 22:22:00,
2013-04-21 18:27:00,77.5,22.9,30.27,ENE,63,0.0,4.9,13,0.00,,,0.00,VWS V14.00,2013-04-21 22:27:00,
2013-04-21 18:32:00,76.5,22.0,30.27,ENE,72,3.1,3.6,13,0.00,,,0.00,VWS V14.00,2013-04-21 22:32:00,
2013-04-21 18:37:00,75.2,21.0,30.27,East,100,0.0,0.0,13,0.00,,,0.00,VWS V14.00,2013-04-21 22:37:00,
2013-04-21 18:42:00,73.8,19.9,30.27,East,100,0.0,0.0,13,0.00,,,0.00,VWS V14.00,2013-04-21 22:42:00,
2013-04-21 18:47:00,72.5,20.6,30.27,ESE,121,2.7,4.0,14,0.00,,,0.00,VWS V14.00,2013-04-21 22:47:00,
2013-04-21 18:52:00,71.8,20.1,30.27,ENE,72,2.7,2.7,14,0.00,,,0.00,VWS V14.00,2013-04-21 22:52:00,
2013-04-21 18:57:00,70.9,19.4,30.27,ESE,102,2.7,2.7,14,0.00,,,0.00,VWS V14.00,2013-04-21 22:57:00,
2013-04-21 19:02:00,70.2,18.8,30.27,ENE,63,0.0,3.1,14,0.00,,,0.00,VWS V14.00,2013-04-21 23:02:00,
2013-04-21 19:07:00,69.4,22.8,30.30,East,98,0.0,0.0,17,0.00,,,0.00,VWS V14.00,2013-04-21 23:07:00,
2013-04-21 19:12:00,69.3,22.6,30.30,ESE,106,4.9,5.4,17,0.00,,,0.00,VWS V14.00,2013-04-21 23:12:00,
2013-04-21 19:18:00,68.9,22.3,30.30,ESE,103,0.0,0.0,17,0.00,,,0.00,VWS V14.00,2013-04-21 23:18:00,
2013-04-21 19:23:00,68.9,22.3,30.30,East,85,0.0,0.0,17,0.00,,,0.00,VWS V14.00,2013-04-21 23:23:00,
2013-04-21 19:28:00,68.4,21.9,30.30,East,93,2.7,3.1,17,0.00,,,0.00,VWS V14.00,2013-04-21 23:28:00,
2013-04-21 19:33:00,68.0,21.6,30.30,NNE,22,0.0,4.0,17,0.00,,,0.00,VWS V14.00,2013-04-21 23:33:00,
2013-04-21 19:38:00,67.8,21.5,30.30,ENE,78,0.0,0.0,17,0.00,,,0.00,VWS V14.00,2013-04-21 23:38:00,
2013-04-21 19:43:00,67.3,21.0,30.30,East,95,2.7,3.1,17,0.00,,,0.00,VWS V14.00,2013-04-21 23:43:00,
2013-04-21 19:48:00,66.7,20.6,30.30,ESE,116,0.0,0.0,17,0.00,,,0.00,VWS V14.00,2013-04-21 23:48:00,
2013-04-21 19:53:00,66.4,20.3,30.30,WNW,298,0.0,2.2,17,0.00,,,0.00,VWS V14.00,2013-04-21 23:53:00,
2013-04-21 19:58:00,66.2,20.1,30.30,East,95,0.0,0.0,17,0.00,,,0.00,VWS V14.00,2013-04-21 23:58:00,
2013-04-21 20:03:00,65.8,21.2,30.30,East,96,0.0,0.0,18,0.00,,,0.00,VWS V14.00,2013-04-22 00:03:00,
2013-04-21 20:08:00,65.5,20.9,30.30,East,96,0.0,0.0,18,0.00,,,0.00,VWS V14.00,2013-04-22 00:08:00,
2013-04-21 20:13:00,64.9,22.9,30.30,East,96,0.0,0.0,20,0.00,,,0.00,VWS V14.00,2013-04-22 00:13:00,
2013-04-21 20:18:00,64.8,22.8,30.30,East,96,0.0,0.0,20,0.00,,,0.00,VWS V14.00,2013-04-22 00:18:00,
2013-04-21 20:23:00,64.2,23.5,30.30,East,96,0.0,0.0,21,0.00,,,0.00,VWS V14.00,2013-04-22 00:23:00,
2013-04-21 20:28:00,63.9,23.2,30.30,East,96,0.0,0.0,21,0.00,,,0.00,VWS V14.00,2013-04-22 00:28:00,
2013-04-21 20:33:00,63.5,25.1,30.30,East,96,0.0,0.0,23,0.00,,,0.00,VWS V14.00,2013-04-22 00:33:00,
2013-04-21 20:39:00,63.1,24.8,30.30,East,99,0.0,0.0,23,0.00,,,0.00,VWS V14.00,2013-04-22 00:39:00,
2013-04-21 20:44:00,62.8,25.5,30.30,ENE,78,0.0,0.0,24,0.00,,,0.00,VWS V14.00,2013-04-22 00:44:00,
2013-04-21 20:49:00,62.4,25.2,30.30,ENE,78,0.0,0.0,24,0.00,,,0.00,VWS V14.00,2013-04-22 00:49:00,
2013-04-21 20:54:00,62.1,25.9,30.33,ENE,78,0.0,0.0,25,0.00,,,0.00,VWS V14.00,2013-04-22 00:54:00,
2013-04-21 20:59:00,61.9,25.7,30.33,ENE,78,0.0,0.0,25,0.00,,,0.00,VWS V14.00,2013-04-22 00:59:00,
2013-04-21 21:04:00,61.7,25.5,30.33,ENE,78,0.0,0.0,25,0.00,,,0.00,VWS V14.00,2013-04-22 01:04:00,
2013-04-21 21:09:00,61.3,25.2,30.33,ENE,78,0.0,0.0,25,0.00,,,0.00,VWS V14.00,2013-04-22 01:09:00,
2013-04-21 21:14:00,61.0,24.9,30.33,ENE,78,0.0,0.0,25,0.00,,,0.00,VWS V14.00,2013-04-22 01:14:00,
2013-04-21 21:19:00,60.8,24.8,30.33,ENE,78,0.0,0.0,25,0.00,,,0.00,VWS V14.00,2013-04-22 01:19:00,
2013-04-21 21:24:00,60.6,25.6,30.33,ENE,78,0.0,0.0,26,0.00,,,0.00,VWS V14.00,2013-04-22 01:24:00,
2013-04-21 21:29:00,60.4,26.3,30.33,ENE,78,0.0,0.0,27,0.00,,,0.00,VWS V14.00,2013-04-22 01:29:00,
2013-04-21 21:34:00,60.1,26.0,30.33,ENE,78,0.0,0.0,27,0.00,,,0.00,VWS V14.00,2013-04-22 01:34:00,
2013-04-21 21:39:00,60.1,26.0,30.33,ENE,78,0.0,0.0,27,0.00,,,0.00,VWS V14.00,2013-04-22 01:39:00,
2013-04-21 21:44:00,59.7,26.6,30.33,ENE,78,0.0,0.0,28,0.00,,,0.00,VWS V14.00,2013-04-22 01:44:00,
2013-04-21 21:49:00,59.5,26.4,30.33,ENE,78,0.0,0.0,28,0.00,,,0.00,VWS V14.00,2013-04-22 01:49:00,
2013-04-21 21:54:00,59.5,26.4,30.33,ENE,78,0.0,0.0,28,0.00,,,0.00,VWS V14.00,2013-04-22 01:54:00,
2013-04-21 21:59:00,59.4,26.3,30.33,ENE,78,0.0,0.0,28,0.00,,,0.00,VWS V14.00,2013-04-22 01:59:00,
2013-04-21 22:04:00,59.2,26.1,30.33,ENE,78,0.0,0.0,28,0.00,,,0.00,VWS V14.00,2013-04-22 02:04:00,
2013-04-21 22:10:00,59.0,26.8,30.33,ENE,78,0.0,0.0,29,0.00,,,0.00,VWS V14.00,2013-04-22 02:10:00,
2013-04-21 22:15:00,58.8,27.5,30.33,ENE,78,0.0,0.0,30,0.00,,,0.00,VWS V14.00,2013-04-22 02:15:00,
2013-04-21 22:20:00,58.6,28.1,30.33,ENE,78,0.0,0.0,31,0.00,,,0.00,VWS V14.00,2013-04-22 02:20:00,
2013-04-21 22:25:00,58.5,28.0,30.33,ENE,78,0.0,0.0,31,0.00,,,0.00,VWS V14.00,2013-04-22 02:25:00,
2013-04-21 22:30:00,58.1,28.4,30.33,ENE,78,0.0,0.0,32,0.00,,,0.00,VWS V14.00,2013-04-22 02:30:00,
2013-04-21 22:35:00,58.1,29.2,30.30,ENE,61,0.0,0.0,33,0.00,,,0.00,VWS V14.00,2013-04-22 02:35:00,
2013-04-21 22:40:00,57.9,29.0,30.30,ENE,61,0.0,0.0,33,0.00,,,0.00,VWS V14.00,2013-04-22 02:40:00,
2013-04-21 22:45:00,57.9,29.7,30.30,SE,145,0.0,2.2,34,0.00,,,0.00,VWS V14.00,2013-04-22 02:45:00,
2013-04-21 22:50:00,57.7,29.6,30.33,SE,145,0.0,0.0,34,0.00,,,0.00,VWS V14.00,2013-04-22 02:50:00,
2013-04-21 22:55:00,57.7,30.3,30.33,SE,137,0.0,0.0,35,0.00,,,0.00,VWS V14.00,2013-04-22 02:55:00,
2013-04-21 23:00:00,57.7,30.3,30.33,North,357,0.0,0.0,35,0.00,,,0.00,VWS V14.00,2013-04-22 03:00:00,
2013-04-21 23:05:00,57.7,30.3,30.30,East,83,0.0,0.0,35,0.00,,,0.00,VWS V14.00,2013-04-22 03:05:00,
2013-04-21 23:10:00,57.6,30.1,30.30,ESE,116,0.0,0.0,35,0.00,,,0.00,VWS V14.00,2013-04-22 03:10:00,
2013-04-21 23:15:00,57.6,30.1,30.30,East,98,0.0,2.7,35,0.00,,,0.00,VWS V14.00,2013-04-22 03:15:00,
2013-04-21 23:20:00,57.6,30.1,30.30,East,91,2.2,3.1,35,0.00,,,0.00,VWS V14.00,2013-04-22 03:20:00,
2013-04-21 23:25:00,57.6,30.1,30.30,ESE,106,2.7,2.7,35,0.00,,,0.00,VWS V14.00,2013-04-22 03:25:00,
2013-04-21 23:30:00,57.6,30.1,30.30,ENE,77,3.1,3.1,35,0.00,,,0.00,VWS V14.00,2013-04-22 03:30:00,
2013-04-21 23:35:00,57.4,30.0,30.30,East,86,0.0,0.0,35,0.00,,,0.00,VWS V14.00,2013-04-22 03:35:00,
2013-04-21 23:41:00,57.2,29.8,30.30,East,86,0.0,3.6,35,0.00,,,0.00,VWS V14.00,2013-04-22 03:41:00,
2013-04-21 23:46:00,57.2,29.8,30.30,ESE,104,0.0,2.2,35,0.00,,,0.00,VWS V14.00,2013-04-22 03:46:00,
2013-04-21 23:51:00,57.2,29.8,30.30,ENE,71,0.0,0.0,35,0.00,,,0.00,VWS V14.00,2013-04-22 03:51:00,
2013-04-21 23:56:00,57.0,30.4,30.30,ESE,113,0.0,3.1,36,0.00,,,0.00,VWS V14.00,2013-04-22 03:56:00,